{"data":{"norad_id":63517,"intl_designator":"2025-071AA","name":"STARLINK-33803","alt_names":[],"object_type":"PAYLOAD","status":"ACTIVE","operator":null,"country":"US","launch_date":"2025-04-07","launch_site_code":"AFWTR","launch_vehicle":null,"mission":null,"orbit_class":"UNKNOWN","rcs_meters":null,"size_class":null,"mass_kg":null,"dimensions":null,"purposes":["comms"],"wikipedia_slug":null,"has_3d_model":false,"image_url":null,"decayed_at":null,"tle_current":{"epoch":"2026-09-20T11:09:17.187264Z","epoch_age_seconds":158770,"freshness":"FRESH","line1":"1 63517U 25071AA  26263.46478226  .00019211  00000+0  57803-3 0  9994","line2":"2 63517  53.1621 313.5531 0000935  88.1100 272.0010 15.34411670 82619","mean_motion":15.3441167,"eccentricity":9.35e-5,"inclination_deg":53.1621,"raan_deg":313.5531,"arg_perigee_deg":88.11,"mean_anomaly_deg":272.001,"bstar":0.00057803,"rev_number":8261,"period_min":93.847044320251,"perigee_km":462.02893940823,"apogee_km":463.30817004697,"semimajor_km":6840.8055547276,"source":"CELESTRAK","updated_at":"2026-09-21T09:00:35.018163Z"}}}